Home   Weather   Råholt   Past weeks

Flag for Norway Past Weather in Råholt, Norway — Yesterday and Last 2 Weeks

Now
48 °F

Light rain. Passing clouds.


Feels Like: 45 °F
Forecast: 48 / 56 °F
Wind: 8 mph from South

Location: Oslo Gardermoen Airport

Current Time: Sep 29, 2016 at 7:09:58 AM

Latest Report: Sep 29, 2016 at 6:20 AM


Visibility: 6 mi

Pressure: 29.39 "Hg

Humidity: 94%

Dew Point: 46 °F

Location of RåholtLocation

Past Weather in Råholt — Graph

°F

Råholt Temperature Yesterday

Maximum temperature yesterday: 61 °F (at 1:20 PM)
Minimum temperature yesterday: 50 °F (at 4:20 AM)
Average temperature yesterday: 54 °F

High & Low Weather Summary for the Past Weeks

 TemperatureHumidityPressure
High72 °F (Sep 15, 4:20 PM)100% (Sep 14, 5:50 AM)30.24 "Hg (Sep 14, 5:50 AM)
Low41 °F (Sep 24, 6:20 AM)43% (Sep 19, 5:50 PM)29.42 "Hg (Sep 29, 5:50 AM)
Average56 °F83%30.07 "Hg
* Reported Sep 14 5:20 AM — Sep 29 5:50 AM, Råholt, Weather by CustomWeather, © 2016

Note: Actual official high and low records may vary slightly from our data, if they occured in-between our weather recording intervals... More about our weather records

Advertising

Råholt Weather History for the Previous 24 Hours

Scroll right to see more
 ConditionsComfort  
Time TempWeatherWind HumidityBarometerVisibility
5:50 AM
Thu, Sep 29
46 °FRain. Partly cloudy.9 mph93%29.42 "Hg6 mi
5:20 AM46 °FRain. Passing clouds.10 mph93%29.45 "Hg5 mi
4:50 AM48 °FLight rain. Passing clouds.13 mph87%29.47 "HgN/A
4:20 AM48 °FLight rain. Clear.10 mph82%29.50 "HgN/A
3:50 AM48 °FLight rain. Clear.6 mph76%29.53 "HgN/A
3:20 AM48 °FClear.5 mph71%29.56 "Hg10 mi
2:50 AM48 °FPassing clouds.6 mph71%29.56 "HgN/A
2:20 AM48 °FPassing clouds.5 mph71%29.59 "HgN/A
1:50 AM48 °FClear.6 mph66%29.59 "Hg10 mi
1:20 AM48 °FClear.6 mph71%29.59 "Hg10 mi
12:50 AM50 °FClear.2 mph71%29.62 "Hg10 mi
12:20 AM50 °FPassing clouds.6 mph67%29.59 "HgN/A
11:50 PM
Wed, Sep 28
50 °FClear.2 mph67%29.62 "Hg10 mi
11:20 PM52 °FClear.1 mph62%29.62 "Hg10 mi
10:50 PM52 °FPassing clouds.3 mph62%29.62 "HgN/A
10:20 PM52 °FClear.No wind62%29.62 "Hg10 mi
9:50 PM52 °FClear.2 mph62%29.62 "Hg10 mi
9:20 PM54 °FPassing clouds.9 mph58%29.59 "HgN/A
8:50 PM54 °FPassing clouds.6 mph63%29.59 "HgN/A
8:20 PM54 °FPassing clouds.7 mph63%29.59 "HgN/A
7:50 PM52 °FClear.2 mph72%29.59 "Hg10 mi
7:20 PM54 °FClear.5 mph72%29.59 "Hg10 mi
6:50 PM55 °FSunny.7 mph72%29.56 "Hg10 mi
6:20 PM57 °FSunny.8 mph67%29.56 "Hg10 mi
5:50 PM57 °FSunny.10 mph67%29.56 "Hg10 mi
5:20 PM61 °FSunny.12 mph59%29.56 "Hg10 mi
4:50 PM59 °FPassing clouds.8 mph63%29.53 "HgN/A
4:20 PM61 °FPassing clouds.10 mph59%29.53 "HgN/A
3:50 PM61 °FPassing clouds.13 mph55%29.53 "HgN/A
3:20 PM61 °FScattered showers. Scattered clouds.13 mph55%29.53 "HgN/A
2:50 PM59 °FScattered showers. Scattered clouds.10 mph59%29.53 "HgN/A
2:20 PM61 °FScattered clouds.10 mph52%29.53 "HgN/A
1:50 PM59 °FScattered clouds.9 mph59%29.53 "HgN/A
1:20 PM61 °FPassing clouds.10 mph55%29.50 "HgN/A
12:50 PM59 °FPassing clouds.10 mph59%29.50 "HgN/A
12:20 PM59 °FPassing clouds.13 mph59%29.50 "HgN/A
11:50 AM57 °FPassing clouds.9 mph63%29.50 "HgN/A
11:20 AM57 °FPassing clouds.9 mph67%29.50 "HgN/A
10:50 AM55 °FPassing clouds.12 mph77%29.50 "HgN/A
10:20 AM54 °FScattered clouds.8 mph82%29.50 "HgN/A
9:50 AM52 °FScattered clouds.10 mph82%29.50 "HgN/A
9:20 AM52 °FPartly sunny.14 mph82%29.50 "HgN/A
8:50 AM52 °FPartly sunny.12 mph82%29.50 "HgN/A
8:20 AM52 °FBroken clouds.14 mph82%29.50 "HgN/A
7:50 AM50 °FPartly sunny.13 mph88%29.50 "HgN/A
7:20 AM50 °FPartly sunny.12 mph88%29.50 "HgN/A
Weather by CustomWeather, © 2016

See weather overviewHow to use our weather pages